Weather reports worldwide

Advertisment
Brive, France (7438): temperature & dewpoint: 18.03.2019 17:00:00 - 24.03.2019 17:00:00 (CET)Brive, France (7438): temperature 5cm: 18.03.2019 17:00:00 - 24.03.2019 17:00:00 (CET)Brive, France (7438): temperature -20cm & temperature -100cm: 18.03.2019 17:00:00 - 24.03.2019 17:00:00 (CET)Brive, France (7438): wind speed & gusts: 18.03.2019 17:00:00 - 24.03.2019 17:00:00 (CET)Brive, France (7438): wind direction: 18.03.2019 17:00:00 - 24.03.2019 17:00:00 (CET)Brive, France (7438): reduced air pressure: 18.03.2019 17:00:00 - 24.03.2019 17:00:00 (CET)Brive, France (7438): visibility: 18.03.2019 17:00:00 - 24.03.2019 17:00:00 (CET)Brive, France (7438): sunshine duration: 18.03.2019 17:00:00 - 24.03.2019 17:00:00 (CET)Brive, France (7438): precipitation: 18.03.2019 17:00:00 - 24.03.2019 17:00:00 (CET)
Date & Time tt [°C] td [°C] tt 5cm [°C] tt -20cm [°C] tt -100cm [°C] ff [km/h] ff [kn] fx [km/h] fx [kn] dd ppp [hPa] vv [km] sd [min] rr [mm]
24.03.2019 17:00:00 19,2 1,6 21,9 13,0 11,1 14 8 29 16 N 1023,8 20 60 0,0
24.03.2019 16:00:00 20,2 1,6 23,2 12,6 11,1 12 6 37 20 N 1024,0 20 60 0,0
24.03.2019 15:00:00 20,4 1,3 24,6 12,0 11,0 12 7 26 14 N 1024,0 20 60 0,0
24.03.2019 14:00:00 20,0 1,4 24,1 11,6 11,1 13 7 31 17 N 1024,4 20 60 0,0
24.03.2019 13:00:00 19,8 1,2 24,9 11,2 11,1 11 6 26 14 N 1025,1 20 60 0,0
24.03.2019 12:00:00 18,2 4,7 23,4 10,9 11,0 7 4 13 7 N 1025,5 20 60 0,0
24.03.2019 11:00:00 15,1 4,5 18,3 10,8 11,1 3 2 8 4 W 1026,2 20 60 0,0
24.03.2019 10:00:00 10,7 3,5 13,6 10,8 11,0 0 0 4 2 N 1026,7 20 60 0,0
24.03.2019 09:00:00 7,1 3,0 5,8 11,0 11,0 3 2 6 3 ESE 1027,0 20 60 0,0
24.03.2019 08:00:00 3,4 1,4 0,7 11,3 11,0 0 0 5 3 N 1026,9 20 21 0,0
24.03.2019 07:00:00 1,8 0,3 0,4 11,5 11,0 0 0 6 3 N 1026,8 20 0 0,0
24.03.2019 06:00:00 2,5 1,0 0,7 11,7 11,0 2 1 4 2 S 1026,5 20 0 0,0
24.03.2019 05:00:00 3,3 1,3 1,2 12,0 11,1 0 0 5 3 N 1026,3 20 0 0,0
24.03.2019 04:00:00 3,8 1,8 2,0 12,2 11,0 4 2 6 4 SSE 1025,7 20 0 0,0
24.03.2019 03:00:00 4,6 2,0 2,4 12,4 11,0 0 0 5 3 N 1025,6 20 0 0,0
24.03.2019 02:00:00 5,5 2,3 3,3 12,6 11,0 0 0 3 2 N 1025,8 20 0 0,0
24.03.2019 01:00:00 6,4 2,8 3,9 12,8 11,0 0 0 2 1 N 1025,7 20 0 0,0
24.03.2019 00:00:00 7,8 3,5 4,8 13,0 11,0 0 0 3 2 N 1025,8 20 0 0,0
23.03.2019 23:00:00 9,5 3,7 6,0 13,2 11,0 0 0 4 2 N 1025,9 20 0 0,0
23.03.2019 22:00:00 12,3 3,8 8,3 13,3 11,0 0 0 3 2 N 1026,0 20 0 0,0
23.03.2019 21:00:00 15,2 2,0 10,4 13,4 11,0 0 0 12 6 N 1025,7 20 0 0,0
23.03.2019 20:00:00 17,8 0,9 15,5 13,4 11,0 7 4 18 10 NW 1025,0 20 0 0,0
23.03.2019 19:00:00 19,7 1,1 18,2 13,3 11,0 9 5 19 11 NNW 1024,5 20 48 0,0
23.03.2019 18:00:00 21,8 0,3 22,8 13,0 11,0 10 6 23 12 NNW 1024,1 20 60 0,0
23.03.2019 17:00:00 22,6 0,4 24,8 12,6 11,0 11 6 24 13 NNW 1024,3 20 60 0,0
23.03.2019 16:00:00 22,8 2,3 26,0 12,1 11,0 9 5 20 11 NNW 1024,7 20 60 0,0
23.03.2019 15:00:00 22,4 1,4 27,1 11,5 11,0 9 5 22 12 N 1025,2 20 60 0,0
23.03.2019 14:00:00 21,7 1,3 26,9 11,0 11,0 7 4 17 9 NW 1026,1 20 60 0,0
23.03.2019 13:00:00 20,5 4,1 25,6 10,5 10,9 5 3 11 6 W 1026,9 20 60 0,0
23.03.2019 12:00:00 17,3 2,1 23,0 10,3 11,0 4 2 8 4 W 1027,8 20 60 0,0
23.03.2019 11:00:00 13,9 3,1 18,2 10,2 11,0 0 0 4 2 N 1028,4 20 60 0,0
23.03.2019 10:00:00 9,4 3,4 10,8 10,3 11,0 0 0 5 3 N 1029,1 20 60 0,0
23.03.2019 09:00:00 5,7 1,6 4,4 10,4 11,0 0 0 3 2 N 1029,4 20 47 0,0
23.03.2019 08:00:00 2,5 0,7 0,5 10,6 10,9 0 0 4 2 N 1029,5 20 16 0,0
23.03.2019 07:00:00 1,2 -0,1 0,0 10,9 11,0 3 1 5 3 SSE 1029,2 20 0 0,0
23.03.2019 06:00:00 1,6 0,0 0,1 11,1 10,9 0 0 3 2 N 1029,0 20 0 0,0
23.03.2019 05:00:00 2,3 0,5 0,5 11,3 11,0 0 0 4 2 N 1029,1 20 0 0,0
23.03.2019 04:00:00 2,8 0,7 1,2 11,5 10,9 3 1 5 3 S 1028,8 20 0 0,0
23.03.2019 03:00:00 3,4 1,1 1,7 11,7 11,0 0 0 2 1 N 1029,0 20 0 0,0
23.03.2019 02:00:00 4,4 1,4 2,3 12,0 11,0 0 0 5 3 N 1028,9 20 0 0,0
23.03.2019 01:00:00 5,0 1,7 2,9 12,2 11,0 0 0 3 1 N 1028,8 20 0 0,0
23.03.2019 00:00:00 6,3 2,0 3,7 12,4 10,9 0 0 10 5 N 1028,7 20 0 0,0
22.03.2019 23:00:00 7,3 2,4 4,7 12,6 11,0 0 0 6 3 N 1028,6 20 0 0,0
22.03.2019 22:00:00 8,8 2,6 5,7 12,7 11,0 0 0 3 2 N 1028,2 20 0 0,0
22.03.2019 21:00:00 10,8 3,3 7,0 12,7 10,9 2 1 8 4 S 1027,8 20 0 0,0
22.03.2019 20:00:00 13,9 3,4 9,9 12,7 11,0 0 0 4 2 N 1027,1 20 0 0,0
22.03.2019 19:00:00 19,1 -0,4 16,2 12,6 10,9 2 1 10 6 N 1026,6 20 46 0,0
22.03.2019 18:00:00 20,8 0,6 23,9 12,3 10,9 6 3 14 8 N 1026,2 20 60 0,0
22.03.2019 17:00:00 21,1 -0,3 24,7 11,8 10,9 8 5 15 8 NNE 1026,3 20 60 0,0
22.03.2019 16:00:00 20,9 0,1 25,9 11,3 10,9 9 5 16 8 NE 1026,8 20 60 0,0
22.03.2019 15:00:00 20,5 0,3 26,0 10,8 11,0 5 3 15 8 NNE 1027,3 20 60 0,0
22.03.2019 14:00:00 19,5 1,9 25,8 10,2 10,9 6 3 11 6 N 1028,1 20 60 0,0
22.03.2019 13:00:00 17,8 1,7 24,3 9,8 10,9 4 2 10 5 NNE 1028,9 20 60 0,0
22.03.2019 12:00:00 15,6 -0,6 21,2 9,6 10,9 4 2 8 5 NNW 1029,5 20 60 0,0
22.03.2019 11:00:00 12,7 2,0 15,4 9,4 10,9 2 1 8 4 WNW 1030,3 20 60 0,0
22.03.2019 10:00:00 8,4 1,5 10,4 9,5 10,9 3 2 6 4 NNE 1030,7 20 60 0,0
22.03.2019 09:00:00 4,9 0,1 2,7 9,7 10,9 0 0 3 2 N 1031,0 20 60 0,0
22.03.2019 08:00:00 1,8 -0,8 -1,6 9,9 10,9 0 0 0 0 N 1031,0 20 24 0,0
22.03.2019 07:00:00 -0,6 -1,9 -1,9 10,1 10,9 0 0 3 2 N 1030,7 20 0 0,0
22.03.2019 06:00:00 -0,1 -1,5 -1,6 10,4 10,9 0 0 3 2 N 1030,2 20 0 0,0
22.03.2019 05:00:00 0,1 -1,5 -1,3 10,6 11,0 0 0 3 1 N 1030,1 20 0 0,0
22.03.2019 04:00:00 0,5 -1,3 -0,9 10,8 11,0 0 0 0 0 N 1030,1 20 0 0,0
22.03.2019 03:00:00 1,2 -0,9 -0,5 11,0 10,9 0 0 2 1 N 1030,0 20 0 0,0
22.03.2019 02:00:00 1,8 -0,6 -0,1 11,3 11,0 0 0 0 0 N 1030,0 20 0 0,0
22.03.2019 01:00:00 2,5 -0,4 0,5 11,5 11,0 0 0 0 0 N 1029,9 20 0 0,0
22.03.2019 00:00:00 3,7 0,0 1,4 11,7 10,9 0 0 8 5 N 1029,9 20 0 0,0
21.03.2019 23:00:00 4,4 -0,2 2,6 11,9 10,9 4 2 8 4 SSE 1029,7 20 0 0,0
21.03.2019 22:00:00 6,3 0,4 3,5 12,0 11,0 0 0 5 3 N 1029,4 20 0 0,0
21.03.2019 21:00:00 8,6 0,6 6,0 12,1 11,0 4 2 10 5 SSW 1028,7 20 0 0,0
21.03.2019 20:00:00 10,8 1,3 7,2 12,1 11,0 0 0 5 3 N 1028,3 20 0 0,0
21.03.2019 19:00:00 16,4 -2,7 14,0 11,9 10,9 3 1 8 4 W 1027,8 20 45 0,0
21.03.2019 18:00:00 18,0 -3,5 20,4 11,7 10,9 3 2 11 6 NW 1027,6 20 60 0,0
21.03.2019 17:00:00 18,0 -2,3 21,6 11,3 10,9 3 2 14 8 S 1027,5 20 60 0,0
21.03.2019 16:00:00 17,8 -3,1 23,0 10,7 10,9 7 4 14 7 WSW 1027,8 20 60 0,0
21.03.2019 15:00:00 16,8 -1,8 22,6 10,2 10,9 6 4 15 8 N 1028,4 20 60 0,0
21.03.2019 14:00:00 16,8 -1,4 23,2 9,7 10,9 4 2 10 6 SE 1028,9 20 60 0,0
21.03.2019 13:00:00 15,0 -1,6 23,3 9,3 10,9 4 2 13 7 NE 1029,6 20 60 0,0
21.03.2019 12:00:00 14,0 0,2 18,6 9,0 10,9 3 2 12 6 ESE 1030,0 20 60 0,0
21.03.2019 11:00:00 12,3 -0,3 16,9 8,9 10,9 3 2 9 5 SW 1030,6 20 60 0,0
21.03.2019 10:00:00 9,3 0,5 11,8 9,0 10,9 2 1 7 4 E 1031,0 20 60 0,0
21.03.2019 09:00:00 5,2 0,0 1,6 9,2 11,0 0 0 6 3 N 1031,6 20 60 0,0
21.03.2019 08:00:00 1,3 -1,1 -2,4 9,4 11,0 0 0 9 5 N 1031,9 20 24 0,0
21.03.2019 07:00:00 -0,9 -2,0 -2,5 9,6 11,0 0 0 2 1 N 1031,5 20 0 0,0
21.03.2019 06:00:00 -0,6 -2,0 -2,1 9,8 10,9 0 0 3 2 N 1031,4 20 0 0,0
21.03.2019 05:00:00 0,2 -1,2 -1,7 10,0 11,0 0 0 4 2 N 1031,1 20 0 0,0
21.03.2019 04:00:00 0,1 -1,8 -1,4 10,2 11,0 0 0 5 3 N 1031,1 20 0 0,0
21.03.2019 03:00:00 0,9 -1,3 -0,8 10,4 11,0 3 1 5 3 SE 1031,5 20 0 0,0
21.03.2019 02:00:00 1,8 -0,9 -0,3 10,6 11,0 0 0 3 2 N 1032,1 20 0 0,0
21.03.2019 01:00:00 2,5 -0,9 0,5 10,8 11,0 2 1 7 4 SE 1032,5 20 0 0,0
21.03.2019 00:00:00 3,8 -0,6 1,5 11,0 10,9 0 0 8 4 N 1032,3 20 0 0,0
20.03.2019 23:00:00 5,9 -0,2 3,0 11,2 11,0 0 0 5 3 N 1032,3 20 0 0,0
20.03.2019 22:00:00 8,8 -1,1 6,0 11,3 11,0 0 0 11 6 N 1032,3 20 0 0,0
20.03.2019 21:00:00 10,8 -1,9 8,7 11,5 11,0 7 4 22 12 NNE 1032,0 20 0 0,0
20.03.2019 20:00:00 11,7 -2,2 10,4 11,5 11,0 11 6 29 16 NNE 1031,4 20 0 0,0
20.03.2019 19:00:00 13,0 -2,1 12,0 11,4 11,0 16 9 35 19 NNE 1030,6 20 43 0,0
20.03.2019 18:00:00 14,6 -1,5 15,8 11,2 11,0 17 9 33 18 N 1029,7 20 60 0,0
20.03.2019 17:00:00 15,5 -2,0 17,8 10,8 11,0 18 10 35 19 N 1029,5 20 60 0,0
20.03.2019 16:00:00 15,9 -2,6 19,4 10,4 11,0 15 8 36 19 N 1029,7 20 60 0,0
20.03.2019 15:00:00 15,7 -2,8 20,0 9,9 11,0 12 7 27 14 NNW 1030,2 20 60 0,0
20.03.2019 14:00:00 15,2 -3,7 20,2 9,4 11,0 12 7 24 13 N 1030,7 20 60 0,0
20.03.2019 13:00:00 14,5 -2,5 19,2 9,0 11,0 8 4 19 10 NW 1031,4 20 60 0,0
20.03.2019 12:00:00 12,2 0,0 17,2 8,8 11,0 8 4 16 9 W 1032,2 19 60 0,0
20.03.2019 11:00:00 10,0 1,1 12,7 8,7 11,0 4 2 9 5 WNW 1033,1 20 60 0,0
20.03.2019 10:00:00 6,0 0,3 8,2 8,8 11,0 2 1 8 4 WNW 1033,5 20 60 0,0
20.03.2019 09:00:00 2,3 -0,8 -0,3 8,9 11,0 0 0 4 2 N 1033,7 20 60 0,0
20.03.2019 08:00:00 -0,2 -1,6 -2,7 9,1 11,0 0 0 3 2 N 1033,6 20 19 0,0
20.03.2019 07:00:00 -1,9 -2,9 -2,9 9,4 11,0 0 0 7 4 N 1033,4 20 0 0,0
20.03.2019 06:00:00 -1,7 -2,7 -2,9 9,6 11,0 3 1 5 3 SSE 1032,7 20 0 0,0
20.03.2019 05:00:00 -1,3 -2,3 -2,5 9,8 11,0 2 1 3 2 S 1032,4 20 0 0,0
20.03.2019 04:00:00 -0,9 -2,0 -2,2 10,0 11,0 3 2 5 3 SSE 1032,6 20 0 0,0
20.03.2019 03:00:00 -0,3 -1,6 -1,7 10,3 11,0 0 0 4 2 N 1032,7 20 0 0,0
20.03.2019 02:00:00 0,3 -1,3 -1,2 10,5 11,0 0 0 5 3 N 1032,7 20 0 0,0
20.03.2019 01:00:00 1,1 -1,0 -0,7 10,7 11,0 0 0 3 1 N 1032,6 20 0 0,0
20.03.2019 00:00:00 2,6 -0,3 0,5 10,9 11,0 0 0 3 2 N 1032,5 20 0 0,0
19.03.2019 23:00:00 4,7 0,1 1,8 11,1 11,0 0 0 4 2 N 1032,0 20 0 0,0
19.03.2019 22:00:00 5,7 -0,2 3,1 11,3 11,0 0 0 5 3 N 1031,3 20 0 0,0
19.03.2019 21:00:00 7,3 -0,2 4,8 11,3 11,0 2 1 13 7 W 1030,4 20 0 0,0
19.03.2019 20:00:00 9,3 -1,5 6,0 11,4 11,0 3 1 18 10 N 1029,6 20 0 0,0
19.03.2019 19:00:00 11,3 -1,5 10,0 11,4 11,0 10 6 26 14 NNE 1028,8 20 21 0,0
19.03.2019 18:00:00 12,5 -0,8 12,7 11,3 11,0 11 6 29 16 N 1028,0 20 37 0,0
19.03.2019 17:00:00 13,1 -0,6 13,2 11,0 11,0 12 6 31 17 NNE 1027,6 20 33 0,0
19.03.2019 16:00:00 13,7 -0,4 14,3 10,8 11,0 13 7 29 16 NNE 1027,3 20 40 0,0
19.03.2019 15:00:00 12,7 -1,3 13,5 10,5 11,0 11 6 30 16 NNE 1027,3 20 25 0,0
19.03.2019 14:00:00 12,2 -0,4 12,3 10,3 11,0 11 6 22 12 N 1027,5 20 12 0,0
19.03.2019 13:00:00 11,4 1,6 11,2 10,0 11,0 10 6 25 14 N 1028,1 20 18 0,0
19.03.2019 12:00:00 11,6 2,9 11,5 9,8 11,0 8 4 26 14 NE 1028,4 20 36 0,0
19.03.2019 11:00:00 10,5 1,8 10,0 9,7 11,0 11 6 25 14 NE 1028,0 20 36 0,0
19.03.2019 10:00:00 8,9 4,5 9,2 9,8 11,0 7 4 14 8 N 1028,3 20 60 0,0
19.03.2019 09:00:00 6,7 4,2 4,9 9,8 11,0 4 2 8 4 N 1028,0 20 36 0,0
19.03.2019 08:00:00 4,9 4,0 3,8 9,9 11,0 4 2 7 4 W 1027,6 20 23 0,0
19.03.2019 07:00:00 4,3 3,6 2,6 10,1 11,0 0 0 4 2 N 1027,2 18 0 0,0
19.03.2019 06:00:00 5,0 4,0 3,6 10,2 11,0 2 1 5 3 W 1026,6 20 0 0,0
19.03.2019 05:00:00 5,8 4,8 5,6 10,3 11,0 4 2 8 4 W 1026,4 20 0 0,0
19.03.2019 04:00:00 5,8 4,9 5,6 10,3 11,0 3 2 8 4 WSW 1026,2 20 0 0,0
19.03.2019 03:00:00 5,8 4,9 5,1 10,4 11,0 4 2 6 4 W 1026,3 20 0 0,0
19.03.2019 02:00:00 5,8 4,6 5,3 10,5 11,0 2 1 9 5 W 1026,4 20 0 0,0
19.03.2019 01:00:00 6,1 4,7 5,5 10,6 11,0 3 2 9 5 WNW 1026,7 20 0 0,2
19.03.2019 00:00:00 6,3 4,6 5,8 10,7 11,0 3 2 10 5 W 1026,7 17 0 0,2
18.03.2019 23:00:00 6,7 4,5 5,9 10,8 11,0 2 1 7 4 WSW 1026,8 20 0 0,0
18.03.2019 22:00:00 7,0 3,8 6,0 10,9 11,0 0 0 20 11 N 1026,9 20 0 0,0
18.03.2019 21:00:00 7,5 4,1 6,2 10,9 11,0 9 5 24 13 NW 1027,1 19 0 0,4
18.03.2019 20:00:00 7,4 4,7 6,4 10,9 11,0 11 6 29 16 WNW 1026,5 15 0 0,6
18.03.2019 19:00:00 9,1 3,9 8,3 10,9 11,0 15 8 34 18 WNW 1026,1 20 0 0,0
18.03.2019 18:00:00 10,1 2,9 10,6 10,8 11,0 8 4 38 21 W 1025,1 20 0 0,0
18.03.2019 17:00:00 12,0 1,0 12,4 10,6 11,0 11 6 28 15 NNW 1024,7 20 15 0,0

tt = temperature
td = dewpoint
tt 5cm = temperature 5cm
tt -20cm = temperature -20cm
tt -100cm = temperature -100cm
ff = wind speed
fx = gusts
dd = wind direction
ppp = reduced air pressure
vv = visibility
sd = sunshine duration
rr = precipitation

Next stations